Location: Gleizolles
(44.4833°N, 6.7667°E)
Time: 00:08:27
(UTC+00:00)

S-56A Canister/Altair - Pass Details

Date: 02 July 2024
Orbit: 638 x 2488 km, 38.9° (Epoch: 24 July)

Event Time Altitude Azimuth Distance (km) Brightness Sun altitude
Rises 15:49:01 0° 196° (SSW) 3,054 10.8 34.9°
Reaches altitude 10° 15:52:14 10° 171° (S) 2,308 10.0 34.3°
Maximum altitude 15:55:05 15° 138° (SE) 2,191 9.6 33.8°
Drops below altitude 10° 15:58:23 10° 106° (ESE) 2,754 10.0 33.2°
Sets 16:02:53 0° 85° (E) 4,098 10.7 32.4°
